Location: Mouss�
(47.9236°N, 1.2701°W)
Time: 08:21:41
(UTC+00:00)

USA 308 - Pass Details

Date: 03 March 2021
Orbit: 571 x 574 km, 54.0° (Epoch: 10 April)

Event Time Altitude Azimuth Distance (km) Brightness Sun altitude
Rises 20:05:36 0° 290° (WNW) 2,781 7.9 -22.8°
Reaches altitude 10° 20:07:59 10° 299° (WNW) 1,882 6.6 -23.2°
Maximum altitude 20:12:00 38° 8° (N) 883 3.8 -23.9°
Enters shadow 20:12:07 38° 12° (NNE) 884 3.8 -23.9°
